Wind_Speed
8 8 7 7 6 5 5 6 6 7 7 8 8 8 8 8 10 11 12 13 13 13 13 13 13 14 14 15 15 15 15 14 14 14 13 13 12 12 11 11 11 11 10 10 10 10 10 10 10
7 7 6 5 5 5 6 7 8 8 9 9 10 10 10 11 12 12 14 15 14 14 14 15 15 15 16 16 16 18 17 17 16 16 15 15 14 13 13 12 11 11 10 10 10 10 10 10 10
6 6 5 5 5 5 7 8 9 9 10 11 11 12 13 13 14 14 15 16 16 15 15 16 17 17 18 18 19 19 20 20 19 18 18 17 16 16 15 14 13 12 11 10 10 9 9 9 9
6 6 6 6 7 8 9 10 11 11 12 13 13 13 14 15 16 16 17 18 18 18 18 18 18 19 20 21 21 21 21 22 22 22 21 20 19 18 17 16 14 13 12 11 10 10 9 10 9
6 5 7 8 9 11 12 12 13 14 15 16 16 16 17 18 19 19 20 20 21 21 21 22 21 21 22 23 24 23 22 23 24 24 24 23 22 21 19 18 17 15 14 13 11 10 10 10 9
7 7 8 10 11 13 14 14 16 17 18 20 20 20 20 21 22 22 23 24 24 24 24 25 25 25 24 25 25 24 23 24 25 26 25 25 24 23 22 21 19 18 16 15 13 12 11 10 10
8 9 10 12 13 14 15 17 18 20 21 22 23 23 24 24 25 26 26 27 27 27 27 28 27 27 28 27 27 27 26 26 26 26 27 26 25 25 25 24 22 21 19 17 15 14 12 11 10
11 10 11 13 16 16 18 19 20 22 23 23 24 25 26 26 27 27 28 28 29 29 30 30 30 30 30 30 30 30 29 29 28 28 28 27 27 27 26 26 25 23 20 19 18 16 14 13 11
12 11 11 14 17 18 20 21 22 24 25 24 25 26 27 27 28 29 29 29 30 30 31 31 32 33 33 33 33 33 32 32 32 32 31 29 28 29 28 27 27 26 24 21 20 19 17 15 13
13 13 15 17 19 20 21 23 23 25 26 26 25 26 27 28 28 28 28 28 29 29 30 30 31 32 33 34 34 34 35 35 34 34 33 32 31 30 30 29 29 27 26 24 22 22 20 17 15
14 16 18 19 20 21 22 23 24 25 26 26 27 26 26 27 27 28 28 28 28 29 29 29 30 30 31 32 33 34 35 35 35 35 34 33 33 32 32 31 29 29 28 27 25 24 23 20 18
16 17 18 20 20 22 23 23 24 25 25 26 26 26 26 26 26 25 25 26 26 26 27 27 28 29 30 31 31 33 34 34 35 35 35 35 34 33 32 32 31 30 30 29 27 26 24 23 21
18 17 18 20 21 22 23 24 24 24 24 25 24 24 24 24 24 24 24 24 25 24 25 25 26 27 28 29 30 31 32 33 34 34 35 35 34 35 34 33 32 31 30 31 30 29 27 24 23
19 17 19 21 21 22 23 24 23 23 23 23 22 22 22 22 22 22 22 23 23 23 23 24 24 25 26 26 27 28 29 30 31 32 33 34 34 33 33 33 33 32 31 31 30 29 28 27 26
19 19 20 20 21 21 23 24 23 21 20 21 21 20 20 20 20 20 21 21 22 23 23 23 23 23 23 24 24 24 25 26 27 28 30 31 33 33 33 34 33 33 33 32 30 29 28 28 27
17 17 18 19 21 20 22 24 22 20 19 19 19 19 19 19 19 20 21 21 22 23 23 23 23 22 22 22 21 21 21 22 23 24 26 27 29 31 32 33 34 34 33 33 33 32 29 28 28
15 14 15 19 20 20 21 21 20 17 17 17 17 18 18 18 18 19 20 21 22 22 23 23 22 22 22 21 20 19 19 20 20 21 23 24 26 27 29 30 32 34 35 33 34 33 31 30 30
14 15 14 19 23 20 20 19 17 15 15 16 16 17 17 18 19 20 20 21 22 22 22 23 23 22 22 21 19 19 18 18 18 19 20 21 22 24 26 28 30 32 34 34 34 34 33 31 31
14 15 15 20 21 19 17 15 14 14 13 14 15 16 17 18 19 19 20 21 22 22 22 23 23 23 22 21 19 19 18 17 16 16 17 19 20 21 23 25 28 29 31 33 34 35 35 33 32
14 14 16 18 18 15 13 12 11 11 12 13 14 16 17 17 18 19 20 20 21 22 22 23 23 23 22 21 20 19 18 17 16 15 15 16 18 19 20 22 24 27 29 31 32 34 35 35 35
15 17 16 16 15 12 10 9 8 8 10 12 13 14 15 17 18 19 19 20 22 22 23 23 23 23 22 21 20 19 18 17 16 15 14 15 16 17 18 20 22 24 26 29 31 32 35 36 35
16 15 13 12 11 8 7 8 8 9 10 11 12 13 14 16 17 18 19 20 21 22 23 24 24 23 22 22 20 19 19 18 17 15 14 14 14 15 17 18 19 21 24 26 29 31 33 35 36
15 12 10 9 7 5 5 6 8 9 9 10 11 12 14 15 16 18 19 20 21 22 23 24 24 23 23 22 21 21 20 19 18 17 15 15 14 14 15 16 18 20 22 24 27 29 32 34 36
12 10 7 5 4 3 4 6 8 8 8 10 11 12 13 14 16 17 19 20 21 22 23 23 23 23 23 23 22 21 21 20 19 18 17 16 15 14 14 15 16 18 20 22 25 28 31 32 34
11 9 6 1 4 5 6 6 6 6 7 9 10 11 12 14 15 17 18 19 21 22 22 23 23 23 23 24 23 22 22 21 20 19 18 17 15 15 15 15 16 17 19 20 23 25 28 31 32
10 10 9 7 4 8 6 5 4 5 6 7 9 10 12 13 15 16 17 19 20 21 22 23 23 24 24 24 24 23 23 22 21 20 20 18 17 16 15 15 16 17 18 20 21 23 25 28 30
11 11 10 9 8 6 5 3 2 4 5 6 8 10 11 13 14 16 17 19 20 21 22 23 23 24 25 25 25 24 24 23 23 22 21 20 19 18 17 16 16 17 18 19 21 22 24 27 29
11 10 10 10 8 5 5 5 3 3 4 6 8 10 11 13 14 15 17 18 19 20 21 22 23 24 25 25 25 25 25 25 24 24 23 22 21 20 19 18 17 17 17 17 18 20 22 25 27
11 11 10 9 7 7 7 4 2 3 4 6 8 10 11 13 14 15 16 17 19 20 21 22 23 24 25 25 26 26 26 26 26 25 25 24 23 22 21 19 17 16 16 16 16 18 20 22 25
11 11 10 10 9 7 5 2 2 2 4 6 8 10 11 13 14 15 16 18 18 19 20 21 22 23 24 25 25 26 26 26 26 26 27 26 26 24 22 20 19 17 15 14 14 16 17 19 21
Wind_Direction
30 29 31 30 25 12 7 2 351 344 338 333 327 324 318 311 307 302 302 300 294 289 284 280 278 275 270 267 264 259 259 259 259 258 257 256 257 257 256 256 256 255 254 251 248 247 244 244 242
19 17 21 18 4 344 347 349 342 336 331 325 322 321 316 311 308 304 301 299 296 293 288 281 278 276 273 269 268 260 256 256 256 257 257 256 256 256 255 254 256 256 255 253 249 246 244 243 241
0 1 8 345 332 336 334 336 333 330 324 318 316 314 312 311 309 304 300 298 296 296 291 286 282 278 275 271 267 263 257 254 253 253 254 254 253 253 253 252 253 254 254 253 250 247 246 244 242
345 350 343 324 323 322 320 322 323 322 317 313 311 308 306 305 304 302 298 296 295 295 292 289 287 284 280 274 269 266 261 255 253 251 249 249 250 250 250 249 249 250 251 250 249 248 247 245 244
325 331 323 314 310 313 311 314 316 315 313 310 307 304 303 302 300 298 297 295 293 292 289 286 284 283 281 279 274 271 265 257 254 254 251 247 246 247 248 247 246 246 247 247 247 247 246 246 244
308 308 304 304 305 307 306 309 311 310 311 309 306 305 303 300 298 297 295 294 292 290 288 287 285 281 279 280 274 273 270 263 258 256 255 252 249 246 245 246 245 245 245 244 244 245 245 244 244
293 295 296 298 299 304 306 307 308 308 309 308 307 306 304 301 299 298 296 294 292 290 288 285 284 281 279 278 274 272 271 267 262 260 257 254 252 248 245 244 244 245 244 243 242 242 243 243 243
289 296 301 293 294 301 305 307 307 308 308 308 307 306 305 302 300 298 296 294 292 290 288 286 283 280 278 276 275 274 271 268 266 263 261 259 255 251 248 244 242 241 242 242 241 240 240 241 239
287 293 290 290 298 304 307 308 309 309 309 309 309 308 307 304 302 300 299 297 294 292 290 287 284 282 280 278 276 274 272 269 267 267 264 263 261 256 251 247 243 241 240 239 239 238 236 237 237
286 286 286 292 300 307 308 310 312 312 314 313 312 310 309 307 306 305 303 301 299 297 295 292 289 286 282 279 277 275 273 271 270 269 267 264 262 261 255 251 246 241 240 237 236 236 234 233 235
282 283 289 296 303 307 310 313 314 315 315 315 316 315 313 311 310 308 307 305 303 300 298 295 293 290 287 283 279 276 274 273 271 269 268 266 263 262 259 258 250 245 242 238 235 235 234 232 233
279 287 293 299 305 309 312 314 315 316 316 317 318 317 316 315 314 313 312 311 309 306 303 300 297 294 291 287 283 279 277 274 271 269 267 266 264 263 261 260 259 253 246 241 237 234 233 232 232
284 287 294 302 307 311 314 315 317 318 319 319 319 319 320 320 319 318 317 315 314 312 309 306 303 300 296 292 287 283 280 277 273 270 267 266 264 262 262 259 260 256 251 246 243 238 234 233 231
286 294 303 306 311 314 315 316 317 320 321 321 321 322 324 324 324 324 324 323 321 319 317 314 310 306 303 298 292 286 282 279 275 271 268 265 264 262 261 258 257 257 254 253 249 242 237 234 233
286 295 301 307 311 314 317 318 320 325 324 325 326 328 330 331 331 331 331 330 329 327 325 323 318 315 312 308 301 293 286 281 278 274 269 266 264 261 260 258 256 256 255 256 254 247 241 237 234
288 299 307 307 312 315 321 320 323 328 328 329 331 334 336 336 337 336 336 336 335 334 333 331 328 325 322 318 311 303 295 288 282 276 271 268 265 263 260 258 256 256 254 254 254 252 245 241 237
289 295 300 301 310 317 319 319 323 330 330 333 335 338 341 342 342 342 342 342 342 342 341 339 336 332 329 325 320 313 305 297 289 281 276 271 267 264 261 258 256 255 254 253 251 251 249 244 241
281 289 297 303 307 316 317 318 322 331 333 336 340 343 345 346 347 348 348 348 348 347 346 346 343 340 337 333 327 321 314 307 297 287 280 275 271 267 262 259 256 254 253 252 249 247 247 245 243
262 276 292 292 300 307 310 314 320 330 335 339 343 346 348 350 352 353 352 352 352 352 351 351 349 346 344 342 337 331 326 320 310 297 287 280 276 272 267 261 257 254 251 250 248 246 245 245 244
263 275 277 282 296 304 306 312 321 332 339 344 347 349 351 353 355 357 357 357 356 356 355 354 353 352 350 348 346 341 337 331 324 313 300 289 282 276 270 265 259 255 251 249 247 246 245 244 244
273 272 275 285 295 299 302 313 328 336 341 344 348 351 355 357 359 360 360 360 360 360 359 357 356 356 355 354 352 350 347 343 336 327 315 301 290 283 276 269 262 256 253 250 247 245 245 243 243
262 271 282 286 288 294 315 325 336 343 346 348 351 355 358 1 2 3 2 2 2 3 2 2 1 1 360 359 358 355 352 349 344 337 329 316 303 292 283 274 267 261 256 252 248 246 245 244 244
263 273 278 281 283 287 319 329 325 345 349 356 357 359 2 4 5 5 5 5 5 5 4 4 5 5 4 2 1 359 356 353 349 342 336 329 317 305 293 282 273 267 261 256 251 247 246 244 244
259 260 258 263 277 315 319 325 317 353 357 358 359 2 4 6 7 7 8 8 8 8 8 8 8 7 7 5 3 2 360 358 355 350 344 336 327 316 305 293 283 275 267 260 255 249 247 245 243
246 238 218 264 348 317 307 307 319 351 351 355 359 3 6 7 9 10 10 10 10 10 10 10 10 9 8 7 6 5 4 3 1 358 354 346 337 324 314 304 293 283 274 266 259 253 249 247 244
235 225 208 178 206 266 277 292 341 344 349 355 360 3 6 7 8 9 9 9 10 11 12 12 11 11 10 9 8 8 7 6 4 1 357 352 345 335 322 312 303 292 282 272 264 257 251 247 245
228 218 215 203 193 220 274 292 337 336 348 354 360 3 4 5 6 6 7 9 10 11 12 12 12 12 11 11 10 10 10 9 6 2 359 355 349 343 333 322 311 300 291 281 270 262 255 249 246
221 213 201 196 189 187 266 282 326 344 353 359 1 1 2 3 5 5 6 7 8 9 10 11 11 11 12 12 12 12 12 11 9 7 3 358 352 347 342 334 324 311 299 288 276 266 258 252 248
207 200 201 206 202 190 217 246 310 337 348 352 355 357 360 1 2 2 2 2 3 4 6 7 8 9 10 10 11 11 11 10 9 7 6 3 358 352 347 342 334 325 313 298 283 272 262 254 249
207 204 204 205 200 203 218 208 260 324 338 344 349 354 357 359 359 358 358 358 358 360 1 3 4 6 7 8 8 8 8 8 8 7 6 4 2 359 354 349 343 336 327 313 295 281 270 260 252
Height
5914 5914 5913 5913 5913 5913 5911 5911 5910 5909 5909 5908 5907 5907 5906 5906 5906 5907 5903 5901 5900 5900 5899 5898 5898 5897 5897 5896 5896 5895 5895 5895 5894 5894 5893 5893 5893 5892 5892 5892 5892 5892 5891 5891 5891 5891 5892 5892 5893
5915 5915 5915 5915 5913 5912 5912 5910 5910 5909 5909 5907 5906 5906 5906 5905 5904 5903 5901 5900 5899 5898 5897 5896 5895 5895 5894 5894 5893 5893 5892 5892 5892 5892 5892 5891 5891 5891 5891 5891 5891 5890 5890 5890 5890 5890 5890 5891 5891
5916 5916 5916 5915 5912 5911 5911 5910 5909 5909 5908 5907 5906 5906 5905 5904 5902 5901 5900 5898 5897 5896 5895 5894 5893 5892 5891 5891 5890 5890 5889 5889 5889 5889 5889 5889 5889 5889 5889 5889 5889 5889 5889 5889 5889 5889 5889 5889 5889
5917 5917 5916 5915 5912 5911 5910 5910 5908 5907 5907 5906 5905 5904 5903 5902 5900 5899 5897 5896 5895 5894 5892 5891 5890 5889 5888 5888 5887 5886 5886 5885 5885 5885 5885 5886 5886 5886 5886 5887 5887 5887 5887 5887 5887 5887 5887 5888 5888
5916 5916 5915 5912 5910 5910 5909 5908 5907 5906 5905 5904 5903 5902 5901 5900 5898 5896 5894 5893 5892 5891 5889 5887 5886 5886 5885 5884 5883 5882 5882 5881 5881 5881 5882 5882 5882 5883 5883 5884 5884 5884 5885 5885 5885 5885 5886 5886 5886
5916 5916 5914 5911 5910 5909 5908 5907 5906 5904 5903 5902 5900 5899 5898 5896 5894 5893 5891 5889 5888 5886 5885 5883 5882 5881 5880 5880 5879 5878 5877 5877 5877 5877 5877 5878 5878 5879 5879 5880 5881 5882 5882 5883 5883 5883 5884 5884 5884
5916 5915 5913 5910 5909 5908 5907 5905 5904 5903 5901 5899 5897 5896 5894 5892 5890 5888 5886 5884 5882 5881 5879 5878 5877 5876 5875 5874 5873 5873 5873 5872 5872 5872 5872 5873 5874 5875 5875 5876 5877 5878 5879 5880 5881 5881 5882 5882 5882
5913 5914 5911 5909 5907 5906 5905 5903 5902 5900 5898 5897 5894 5892 5890 5887 5885 5883 5881 5879 5877 5875 5873 5872 5871 5870 5869 5868 5867 5867 5866 5867 5867 5867 5867 5868 5868 5870 5871 5871 5873 5874 5875 5876 5877 5878 5879 5880 5880
5911 5912 5909 5906 5905 5904 5902 5901 5899 5897 5895 5893 5891 5888 5885 5882 5880 5877 5875 5873 5871 5868 5867 5865 5864 5862 5861 5861 5860 5860 5860 5860 5860 5861 5861 5862 5863 5864 5865 5866 5867 5869 5870 5872 5873 5875 5876 5877 5878
5909 5909 5907 5904 5902 5901 5900 5898 5896 5894 5891 5888 5887 5884 5880 5877 5875 5872 5869 5867 5864 5862 5860 5858 5856 5855 5854 5853 5852 5852 5852 5852 5853 5853 5854 5855 5857 5858 5859 5860 5861 5863 5865 5867 5869 5871 5872 5874 5875
5905 5905 5903 5902 5901 5899 5898 5896 5893 5890 5888 5885 5882 5879 5876 5873 5870 5867 5864 5861 5859 5856 5854 5851 5849 5848 5847 5846 5845 5844 5844 5844 5845 5846 5847 5848 5850 5851 5853 5854 5856 5858 5859 5862 5864 5866 5868 5870 5872
5901 5901 5901 5900 5898 5897 5895 5893 5891 5888 5885 5881 5878 5875 5872 5869 5865 5862 5859 5857 5854 5851 5848 5846 5843 5841 5839 5838 5837 5836 5836 5836 5836 5837 5839 5840 5842 5844 5846 5848 5850 5852 5854 5856 5858 5861 5863 5866 5868
5897 5897 5897 5897 5896 5894 5892 5890 5887 5885 5882 5878 5875 5872 5868 5865 5862 5859 5856 5853 5849 5846 5843 5840 5837 5835 5833 5831 5829 5828 5827 5827 5828 5829 5830 5832 5834 5836 5838 5840 5843 5845 5847 5850 5853 5855 5858 5861 5863
5895 5893 5893 5894 5893 5891 5889 5887 5884 5882 5878 5875 5872 5869 5866 5862 5859 5856 5852 5849 5846 5842 5839 5836 5832 5829 5827 5824 5822 5821 5820 5819 5819 5820 5821 5823 5825 5828 5830 5833 5836 5838 5841 5843 5846 5849 5852 5854 5858
5894 5894 5893 5891 5890 5888 5886 5884 5881 5879 5875 5873 5869 5866 5863 5860 5857 5853 5850 5846 5843 5839 5835 5832 5828 5825 5821 5818 5816 5814 5813 5812 5812 5812 5813 5815 5817 5819 5822 5825 5828 5831 5834 5836 5839 5843 5846 5849 5852
5892 5891 5890 5889 5887 5885 5885 5881 5878 5876 5873 5870 5867 5864 5862 5858 5855 5851 5848 5844 5840 5836 5832 5828 5824 5821 5817 5814 5811 5808 5807 5806 5805 5805 5806 5807 5809 5811 5814 5817 5820 5823 5826 5830 5833 5836 5840 5843 5846
5889 5888 5887 5884 5883 5883 5882 5879 5876 5874 5871 5869 5866 5863 5860 5857 5853 5850 5846 5842 5838 5834 5830 5826 5821 5817 5814 5810 5807 5804 5802 5801 5800 5799 5799 5800 5801 5803 5806 5809 5811 5815 5818 5822 5826 5829 5833 5836 5840
5887 5886 5885 5883 5881 5881 5880 5877 5874 5872 5870 5868 5865 5862 5859 5856 5852 5849 5845 5841 5837 5833 5828 5824 5819 5815 5811 5807 5804 5801 5798 5796 5795 5794 5794 5794 5795 5796 5798 5801 5803 5807 5810 5814 5818 5822 5826 5830 5833
5884 5885 5885 5883 5880 5880 5878 5876 5873 5871 5869 5867 5864 5861 5858 5855 5851 5848 5844 5840 5836 5832 5827 5822 5818 5813 5809 5805 5801 5798 5795 5793 5791 5789 5789 5789 5789 5790 5792 5794 5796 5799 5802 5806 5810 5813 5818 5822 5826
5881 5882 5883 5881 5878 5878 5876 5874 5872 5870 5868 5866 5864 5861 5858 5854 5851 5847 5843 5839 5835 5831 5826 5821 5817 5812 5807 5803 5800 5796 5793 5790 5788 5786 5785 5784 5784 5784 5785 5787 5789 5791 5795 5798 5802 5805 5809 5814 5818
5879 5879 5879 5878 5877 5876 5874 5873 5871 5870 5868 5866 5864 5861 5858 5855 5851 5847 5843 5839 5835 5830 5826 5821 5816 5811 5807 5803 5799 5795 5791 5788 5786 5784 5782 5781 5780 5780 5780 5781 5783 5785 5787 5790 5794 5797 5801 5806 5810
5876 5875 5876 5876 5875 5873 5873 5871 5870 5868 5867 5866 5863 5861 5858 5855 5851 5847 5843 5839 5835 5830 5826 5821 5816 5811 5806 5802 5798 5794 5791 5787 5784 5782 5780 5778 5777 5776 5776 5776 5777 5778 5780 5783 5786 5789 5793 5797 5802
5873 5874 5874 5873 5873 5872 5871 5871 5870 5868 5867 5865 5863 5860 5858 5855 5851 5848 5844 5840 5835 5831 5826 5821 5816 5811 5807 5802 5798 5794 5790 5787 5783 5780 5778 5776 5774 5772 5772 5771 5772 5773 5774 5776 5778 5781 5785 5789 5793
5871 5872 5872 5871 5871 5871 5871 5871 5870 5868 5866 5865 5863 5860 5858 5855 5852 5848 5844 5840 5836 5831 5826 5822 5817 5812 5807 5803 5798 5794 5790 5786 5782 5779 5776 5774 5771 5770 5768 5767 5767 5767 5768 5769 5771 5773 5776 5780 5784
5868 5870 5870 5870 5871 5872 5871 5871 5870 5868 5867 5865 5863 5861 5858 5855 5852 5848 5845 5841 5836 5832 5827 5823 5818 5813 5808 5803 5799 5794 5790 5786 5782 5778 5775 5772 5769 5767 5765 5764 5763 5762 5762 5763 5764 5766 5768 5772 5775
5865 5867 5868 5870 5873 5872 5870 5869 5870 5868 5866 5865 5863 5861 5858 5855 5852 5849 5845 5841 5837 5833 5828 5823 5819 5814 5809 5804 5799 5794 5790 5786 5782 5778 5774 5771 5768 5765 5763 5761 5759 5758 5757 5757 5758 5759 5761 5763 5767
5863 5864 5866 5868 5869 5870 5869 5869 5869 5867 5866 5865 5863 5861 5858 5855 5852 5849 5846 5842 5838 5833 5829 5824 5820 5815 5810 5805 5800 5795 5791 5786 5782 5778 5774 5770 5766 5763 5760 5757 5755 5753 5752 5751 5751 5752 5753 5755 5758
5862 5863 5865 5866 5867 5869 5870 5868 5868 5867 5866 5864 5862 5860 5858 5855 5852 5849 5846 5842 5838 5834 5830 5825 5821 5816 5811 5806 5801 5796 5792 5787 5782 5778 5773 5769 5765 5761 5757 5754 5751 5749 5747 5745 5744 5745 5746 5748 5750
5860 5862 5863 5865 5866 5867 5867 5869 5867 5866 5865 5864 5862 5860 5858 5855 5852 5849 5846 5842 5838 5834 5830 5826 5821 5817 5812 5807 5802 5797 5792 5788 5783 5778 5773 5768 5764 5759 5755 5751 5748 5744 5742 5740 5739 5739 5739 5741 5743
5859 5861 5862 5864 5865 5865 5866 5869 5865 5865 5864 5863 5861 5859 5857 5855 5852 5849 5845 5842 5838 5834 5830 5826 5822 5817 5813 5808 5803 5798 5793 5788 5783 5778 5773 5768 5763 5757 5753 5748 5744 5741 5738 5735 5734 5733 5733 5734 5736